EW3670 Weather Reports


time (UTC)temp
C
wind
direction
speed
KPH
gust
KPH
rain 1hr
cm
rain 24hr
cm
rain mn
cm
humidity
%
barometer
mb
20260507051056 8 285 3.2 12.9 0.00 0.00 0.00 70 1007.1
20260507050552 8 300 3.2 17.7 0.00 0.00 0.00 70 1007.0
20260507050054 8 271 3.2 17.7 0.00 0.00 0.00 70 1007.1
20260507045552 9 281 3.2 16.1 0.00 0.00 0.00 70 1007.1
20260507045052 9 296 1.6 16.1 0.00 0.00 0.00 70 1007.1
20260507044609 9 281 3.2 16.1 0.00 0.00 0.00 70 1007.2
20260507044052 9 295 3.2 12.9 0.00 0.00 0.00 70 1007.2
20260507043552 9 306 0.0 8.0 0.00 0.00 0.00 70 1007.2
20260507043104 9 296 1.6 8.0 0.00 0.00 0.00 71 1007.2
20260507042552 9 304 0.0 11.3 0.00 0.00 0.00 71 1007.3
20260507042049 9 0 1.6 11.3 0.00 0.00 0.00 72 1007.3
20260507041559 9 287 1.6 6.4 0.00 0.00 0.00 72 1007.4
20260507041049 9 289 0.0 9.7 0.00 0.00 0.00 72 1007.3
20260507040553 9 0 0.0 9.7 0.00 0.00 0.00 73 1007.3
20260507040057 9 271 0.0 3.2 0.00 0.00 0.00 73 1007.4
20260507035552 9 0 0.0 3.2 0.00 0.00 0.00 72 1007.5
20260507035048 9 271 0.0 3.2 0.00 0.00 0.00 72 1007.5
20260507034555 9 0 0.0 3.2 0.00 0.00 0.00 72 1007.5
20260507034053 9 271 0.0 1.6 0.00 0.00 0.00 72 1007.5
20260507033552 9 0 0.0 3.2 0.00 0.00 0.00 72 1007.6
20260507033101 9 0 0.0 3.2 0.00 0.00 0.00 72 1007.6
20260507032557 9 0 0.0 6.4 0.00 0.00 0.00 71 1007.6
20260507032053 10 271 0.0 6.4 0.00 0.00 0.00 71 1007.6
20260507031555 10 0 0.0 4.8 0.00 0.00 0.00 71 1007.7
20260507031055 10 0 0.0 4.8 0.00 0.00 0.00 71 1007.7
20260507030552 10 0 0.0 4.8 0.00 0.00 0.00 71 1007.8
20260507030101 10 270 0.0 4.8 0.00 0.00 0.00 70 1007.8
20260507025551 10 270 0.0 4.8 0.00 0.00 0.00 70 1007.8
20260507025054 10 0 0.0 4.8 0.00 0.00 0.00 70 1007.8
20260507024557 10 270 0.0 3.2 0.00 0.00 0.00 70 1007.7
20260507024051 10 0 0.0 4.8 0.00 0.00 0.00 69 1007.7
20260507023551 10 0 0.0 4.8 0.00 0.00 0.00 69 1007.7
20260507023109 10 0 0.0 6.4 0.00 0.00 0.00 69 1007.8
20260507022552 10 270 1.6 6.4 0.00 0.00 0.00 69 1007.7
20260507022051 10 0 1.6 6.4 0.00 0.00 0.00 68 1007.7
20260507021557 10 270 1.6 6.4 0.00 0.00 0.00 68 1007.7
20260507021051 10 0 0.0 4.8 0.00 0.00 0.00 68 1007.7
20260507020552 10 257 0.0 6.4 0.00 0.00 0.00 68 1007.7
20260507020100 10 257 0.0 6.4 0.00 0.00 0.00 68 1007.7
20260507015551 10 0 1.6 6.4 0.00 0.00 0.00 68 1007.7
20260507015051 10 0 1.6 8.0 0.00 0.00 0.00 68 1007.6
20260507014557 10 260 1.6 11.3 0.00 0.00 0.00 68 1007.7
20260507014052 10 247 3.2 12.9 0.00 0.00 0.00 68 1007.8
20260507013551 10 279 3.2 12.9 0.00 0.00 0.00 68 1007.7
20260507013053 10 281 1.6 11.3 0.00 0.00 0.00 68 1007.7
20260507012552 10 237 0.0 11.3 0.00 0.00 0.00 68 1007.7
20260507012053 10 236 3.2 11.3 0.00 0.00 0.00 68 1007.7
20260507011552 10 0 3.2 11.3 0.00 0.00 0.00 67 1007.7
20260507011051 10 265 3.2 11.3 0.00 0.00 0.00 66 1007.6
20260507010552 10 282 1.6 12.9 0.00 0.00 0.00 65 1007.7
20260507010058 10 284 3.2 14.5 0.00 0.00 0.00 65 1007.7
20260507005553 10 0 3.2 14.5 0.00 0.00 0.00 64 1007.6
20260507005053 10 234 1.6 14.5 0.00 0.00 0.00 65 1007.6
20260507004554 11 249 3.2 14.5 0.00 0.00 0.00 65 1007.6
20260507004052 10 238 1.6 14.5 0.00 0.00 0.00 65 1007.4
20260507003552 10 171 4.8 11.3 0.00 0.00 0.00 65 1007.4
20260507003111 11 0 1.6 12.9 0.00 0.00 0.00 65 1007.3
20260507002552 11 225 3.2 12.9 0.00 0.00 0.00 65 1007.3
20260507002052 11 246 3.2 11.3 0.00 0.00 0.00 65 1007.2
20260507001612 11 249 1.6 11.3 0.00 0.00 0.00 65 1007.2
20260507001051 11 236 3.2 11.3 0.00 0.00 0.00 64 1007.2
20260507000556 11 271 3.2 12.9 0.00 0.00 0.00 63 1007.1
20260507000058 11 229 4.8 16.1 0.00 0.00 0.00 63 1007.1
20260506235551 11 257 6.4 16.1 0.00 0.00 0.00 63 1007.0
20260506235051 11 229 4.8 16.1 0.00 0.00 0.00 62 1007.0
20260506234558 11 241 3.2 14.5 0.00 0.00 0.00 62 1007.0
20260506234055 11 240 3.2 14.5 0.00 0.00 0.00 61 1007.0
20260506233552 11 294 3.2 17.7 0.00 0.00 0.00 61 1006.9
20260506233102 11 219 4.8 17.7 0.00 0.00 0.00 60 1006.8
20260506232552 11 275 3.2 14.5 0.00 0.00 0.00 61 1006.7
20260506232052 11 250 6.4 17.7 0.00 0.00 0.00 60 1006.7
20260506231604 11 232 6.4 17.7 0.00 0.00 0.00 60 1006.7
20260506231052 12 229 4.8 16.1 0.00 0.00 0.00 59 1006.5
20260506230551 12 234 4.8 16.1 0.00 0.00 0.00 59 1006.5
20260506230104 12 231 3.2 14.5 0.00 0.00 0.00 58 1006.5
20260506225555 12 246 3.2 14.5 0.00 0.00 0.00 58 1006.5
20260506225052 12 258 4.8 16.1 0.00 0.00 0.00 57 1006.6
20260506224553 12 277 4.8 16.1 0.00 0.00 0.00 57 1006.6
20260506224052 12 248 3.2 14.5 0.00 0.00 0.00 57 1006.6
20260506223555 12 286 6.4 12.9 0.00 0.00 0.00 56 1006.8
20260506223054 12 290 1.6 12.9 0.00 0.00 0.00 56 1006.7
20260506222550 12 279 3.2 12.9 0.00 0.00 0.00 56 1006.7
20260506222052 12 238 4.8 14.5 0.00 0.00 0.00 55 1006.7
20260506221606 12 245 4.8 14.5 0.00 0.00 0.00 54 1006.7
20260506221051 12 266 1.6 11.3 0.00 0.00 0.00 54 1006.6
20260506220553 12 280 3.2 11.3 0.00 0.00 0.00 54 1006.5
20260506220056 12 267 3.2 11.3 0.00 0.00 0.00 54 1006.5
20260506215555 12 261 3.2 11.3 0.00 0.00 0.00 53 1006.6
20260506215056 12 250 1.6 9.7 0.00 0.00 0.00 54 1006.6
20260506214554 12 224 3.2 8.0 0.00 0.00 0.00 54 1006.6
20260506214051 12 221 1.6 8.0 0.00 0.00 0.00 54 1006.6
20260506213551 12 229 3.2 12.9 0.00 0.00 0.00 53 1006.6
20260506213055 12 239 3.2 12.9 0.00 0.00 0.00 53 1006.6
20260506212552 13 243 3.2 12.9 0.00 0.00 0.00 52 1006.5
20260506212055 13 237 3.2 14.5 0.00 0.00 0.00 52 1006.7
20260506211555 13 230 3.2 14.5 0.00 0.00 0.00 51 1006.6
20260506211053 13 249 4.8 14.5 0.00 0.00 0.00 51 1006.6
20260506210553 13 242 3.2 11.3 0.00 0.00 0.00 52 1006.6
20260506210058 13 247 3.2 11.3 0.00 0.00 0.00 52 1006.6
20260506205556 13 0 0.0 11.3 0.00 0.00 0.00 53 1006.5
20260506205051 13 238 3.2 9.7 0.00 0.00 0.00 52 1006.5
20260506204556 13 225 4.8 9.7 0.00 0.00 0.00 52 1006.5
20260506204051 13 217 1.6 8.0 0.00 0.00 0.00 52 1006.4
20260506203552 13 214 3.2 8.0 0.00 0.00 0.00 52 1006.3
20260506203105 13 223 3.2 12.9 0.00 0.00 0.00 52 1006.3
20260506202550 13 186 3.2 12.9 0.00 0.00 0.00 51 1006.5
20260506202050 13 209 4.8 12.9 0.00 0.00 0.00 50 1006.6
20260506201552 13 238 4.8 12.9 0.00 0.00 0.00 50 1006.5
20260506201052 13 224 3.2 8.0 0.00 0.00 0.00 50 1006.6
20260506200557 13 211 3.2 9.7 0.00 0.00 0.00 51 1006.7
20260506200057 13 0 3.2 9.7 0.00 0.00 0.00 50 1006.8
20260506195552 13 248 3.2 9.7 0.00 0.00 0.00 50 1006.9
20260506195053 13 223 3.2 9.7 0.00 0.00 0.00 50 1006.9
20260506194554 13 0 3.2 11.3 0.00 0.00 0.00 50 1006.9
20260506194051 13 197 3.2 11.3 0.00 0.00 0.00 49 1007.0
20260506193551 13 283 3.2 12.9 0.00 0.00 0.00 50 1007.1
20260506193104 13 258 4.8 12.9 0.00 0.00 0.00 50 1007.0
20260506192549 13 234 4.8 12.9 0.00 0.00 0.00 49 1007.1
20260506192051 13 280 1.6 14.5 0.00 0.00 0.00 50 1007.1
20260506191553 13 294 3.2 14.5 0.00 0.00 0.00 50 1007.1
20260506191052 13 261 0.0 6.4 0.00 0.00 0.00 52 1007.1
20260506190552 13 261 1.6 12.9 0.00 0.00 0.00 53 1007.2
20260506190054 12 261 1.6 14.5 0.00 0.00 0.00 56 1007.3
20260506185552 12 250 4.8 14.5 0.00 0.00 0.00 56 1007.2
20260506185049 12 231 4.8 11.3 0.00 0.00 0.00 56 1007.1
20260506184551 12 232 4.8 12.9 0.00 0.00 0.00 56 1007.3
20260506184052 12 248 3.2 17.7 0.00 0.00 0.00 57 1007.3
20260506183554 12 259 1.6 17.7 0.00 0.00 0.00 57 1007.3
20260506183105 12 277 1.6 8.0 0.00 0.00 0.00 58 1007.3
20260506182553 11 225 3.2 12.9 0.00 0.00 0.00 59 1007.3
20260506182052 11 226 4.8 12.9 0.00 0.00 0.00 59 1007.4
20260506181558 11 267 3.2 16.1 0.00 0.00 0.00 60 1007.4
20260506181052 12 236 3.2 16.1 0.00 0.00 0.00 58 1007.3
20260506180553 11 280 3.2 16.1 0.00 0.00 0.00 60 1007.4
20260506180058 11 235 4.8 11.3 0.00 0.00 0.00 60 1007.5
20260506175549 11 0 3.2 11.3 0.00 0.00 0.00 59 1007.6
20260506175054 12 254 3.2 11.3 0.00 0.00 0.00 59 1007.5
20260506174553 11 238 3.2 8.0 0.00 0.00 0.00 61 1007.6
20260506174052 11 238 3.2 9.7 0.00 0.00 0.00 61 1007.6
20260506173552 11 238 3.2 11.3 0.00 0.00 0.00 64 1007.7
20260506173059 10 233 3.2 11.3 0.00 0.00 0.00 65 1007.8
20260506172552 10 210 3.2 8.0 0.00 0.00 0.00 66 1007.6
20260506172053 10 219 4.8 11.3 0.00 0.00 0.00 66 1007.7
20260506171550 10 186 3.2 11.3 0.00 0.00 0.00 66 1007.7
20260506171052 10 236 1.6 11.3 0.00 0.00 0.00 66 1007.6
20260506170549 10 227 1.6 11.3 0.00 0.00 0.00 66 1007.6
20260506170106 10 275 1.6 9.7 0.00 0.00 0.00 64 1007.6
20260506165551 10 275 3.2 9.7 0.00 0.00 0.00 63 1007.8
20260506165052 10 275 1.6 6.4 0.00 0.00 0.00 61 1008.0
20260506164616 10 275 1.6 9.7 0.00 0.00 0.00 60 1007.9
20260506164053 10 278 0.0 9.7 0.00 0.00 0.00 62 1007.9
20260506163549 10 278 1.6 9.7 0.00 0.00 0.00 60 1008.1
20260506163101 10 269 1.6 9.7 0.00 0.00 0.00 60 1008.0
20260506162552 10 190 1.6 9.7 0.00 0.00 0.00 61 1007.9
20260506162049 10 0 0.0 6.4 0.00 0.00 0.00 60 1007.9
20260506161555 10 0 1.6 6.4 0.00 0.00 0.00 62 1008.1
20260506161058 10 265 1.6 9.7 0.00 0.00 0.00 61 1008.1
20260506160549 10 0 0.0 9.7 0.00 0.00 0.00 62 1008.2
20260506160105 10 266 3.2 6.4 0.00 0.00 0.00 62 1008.1
20260506155552 10 268 1.6 9.7 0.00 0.00 0.00 62 1008.1
20260506155053 10 268 1.6 9.7 0.00 0.00 0.00 62 1008.1
20260506154559 10 0 0.0 9.7 0.00 0.00 0.00 64 1008.2
20260506154054 10 268 3.2 9.7 0.00 0.00 0.00 64 1008.2
20260506153556 10 269 1.6 6.4 0.00 0.00 0.00 63 1008.3
20260506153058 10 269 0.0 6.4 0.00 0.00 0.00 63 1008.3
20260506152551 10 0 0.0 6.4 0.00 0.00 0.00 63 1008.2
20260506152052 10 269 0.0 9.7 0.00 0.00 0.00 63 1008.3
20260506151555 10 267 1.6 9.7 0.00 0.00 0.00 63 1008.2
20260506151049 10 0 0.0 6.4 0.00 0.00 0.00 65 1008.3
20260506150549 10 241 0.0 6.4 0.00 0.00 0.00 64 1008.5
20260506145549 9 240 0.0 6.4 0.00 0.00 0.00 65 1008.6
20260506145053 9 0 1.6 11.3 0.00 0.00 0.00 65 1008.6
20260506144555 9 239 1.6 11.3 0.00 0.00 0.00 65 1008.6
20260506144049 9 240 1.6 11.3 0.00 0.00 0.00 65 1008.5
20260506143553 9 0 3.2 8.0 0.00 0.00 0.00 65 1008.6
20260506143056 9 253 1.6 8.0 0.00 0.00 0.00 64 1008.6
20260506142553 9 254 0.0 11.3 0.00 0.00 0.00 64 1008.5
20260506142052 9 254 3.2 11.3 0.00 0.00 0.00 64 1008.5
20260506141552 9 253 1.6 11.3 0.00 0.00 0.00 64 1008.4
20260506141052 9 0 1.6 9.7 0.00 0.00 0.00 64 1008.2
20260506140550 9 259 3.2 9.7 0.00 0.00 0.00 64 1008.3
20260506140056 9 0 0.0 9.7 0.00 0.00 0.00 65 1008.3
20260506135549 9 250 1.6 9.7 0.00 0.03 0.00 64 1008.2
20260506135049 9 0 1.6 9.7 0.00 0.03 0.00 65 1008.3
20260506134552 9 0 0.0 6.4 0.00 0.03 0.00 65 1008.3
20260506134052 9 233 0.0 8.0 0.00 0.03 0.00 64 1008.2
20260506133552 9 233 3.2 8.0 0.00 0.03 0.00 64 1008.2
20260506133109 9 234 1.6 6.4 0.00 0.03 0.00 64 1008.2
20260506132549 9 0 1.6 6.4 0.00 0.03 0.00 63 1008.2
20260506132052 9 234 1.6 11.3 0.00 0.03 0.00 63 1008.2
20260506131608 9 234 3.2 11.3 0.00 0.03 0.00 62 1008.2
20260506131053 9 229 1.6 6.4 0.00 0.03 0.00 60 1008.3
20260506130553 9 0 0.0 4.8 0.00 0.03 0.00 55 1008.1
20260506130058 9 0 0.0 3.2 0.00 0.03 0.00 54 1008.1
20260506125551 9 0 0.0 3.2 0.00 0.03 0.00 53 1008.2
20260506125049 9 0 0.0 4.8 0.00 0.03 0.00 53 1008.3
20260506124552 9 0 0.0 4.8 0.00 0.03 0.00 52 1008.2
20260506124051 9 196 0.0 8.0 0.00 0.03 0.00 52 1008.1
20260506123551 9 192 0.0 8.0 0.00 0.03 0.00 52 1008.1
20260506123057 9 0 0.0 6.4 0.00 0.03 0.00 52 1008.1
20260506122550 9 0 1.6 6.4 0.00 0.03 0.00 51 1008.2
20260506122052 9 292 1.6 6.4 0.00 0.03 0.00 54 1008.3
20260506121600 9 0 0.0 1.6 0.00 0.03 0.00 55 1008.2
20260506121049 9 0 0.0 4.8 0.00 0.03 0.00 56 1008.2
20260506120553 9 0 0.0 4.8 0.00 0.03 0.00 56 1008.2
20260506120103 9 293 0.0 1.6 0.00 0.03 0.00 57 1008.2
20260506115555 8 0 0.0 1.6 0.00 0.03 0.00 57 1008.3
20260506115053 8 0 0.0 1.6 0.00 0.03 0.00 58 1008.2
20260506114600 8 293 0.0 1.6 0.00 0.03 0.00 59 1008.3
20260506114056 8 0 0.0 1.6 0.00 0.03 0.00 59 1008.3
20260506113551 8 0 0.0 1.6 0.00 0.03 0.00 59 1008.3
20260506113051 8 293 0.0 1.6 0.00 0.03 0.00 59 1008.2
20260506112553 8 0 0.0 1.6 0.00 0.03 0.00 60 1008.1
20260506112049 8 0 0.0 1.6 0.00 0.03 0.00 60 1008.0
20260506111557 8 293 0.0 3.2 0.00 0.03 0.00 60 1008.0
20260506111052 8 0 0.0 3.2 0.00 0.03 0.00 59 1008.1
20260506110552 8 0 0.0 1.6 0.00 0.03 0.00 59 1008.1
20260506110109 8 0 0.0 1.6 0.00 0.03 0.00 59 1007.9
20260506105552 8 0 0.0 1.6 0.00 0.03 0.00 59 1008.0
20260506105052 8 0 0.0 1.6 0.00 0.03 0.00 58 1008.0
20260506104608 8 0 0.0 1.6 0.00 0.03 0.00 58 1008.0
20260506104054 8 0 0.0 1.6 0.00 0.03 0.00 58 1007.9
20260506103553 8 0 0.0 1.6 0.00 0.03 0.00 58 1007.9
20260506103055 8 0 0.0 0.0 0.00 0.03 0.00 58 1008.0
20260506102556 8 0 0.0 0.0 0.00 0.03 0.00 57 1007.9
20260506102056 8 0 0.0 1.6 0.00 0.03 0.00 57 1007.9
20260506101554 8 0 0.0 1.6 0.00 0.03 0.00 57 1008.2
20260506101052 8 0 0.0 1.6 0.00 0.03 0.00 56 1008.2
20260506100552 8 0 0.0 1.6 0.00 0.03 0.00 56 1008.2
20260506095552 8 0 0.0 3.2 0.00 0.03 0.00 55 1008.4
20260506095049 8 0 0.0 3.2 0.00 0.03 0.00 55 1008.4
20260506094600 8 0 0.0 3.2 0.00 0.03 0.00 54 1008.1
20260506094053 8 0 0.0 1.6 0.00 0.03 0.00 54 1007.9
20260506093553 9 0 0.0 1.6 0.00 0.03 0.00 55 1007.8
20260506093056 9 0 0.0 1.6 0.00 0.03 0.00 54 1007.8
20260506092553 9 0 0.0 1.6 0.00 0.03 0.00 54 1008.0
20260506092053 9 0 0.0 1.6 0.00 0.03 0.00 54 1007.9
20260506091552 9 0 0.0 1.6 0.00 0.03 0.00 54 1007.9
20260506091053 9 0 0.0 1.6 0.00 0.03 0.00 54 1007.8
20260506090552 9 0 0.0 1.6 0.00 0.03 0.00 53 1007.8
20260506090053 9 0 0.0 3.2 0.00 0.03 0.00 53 1007.8
20260506085552 9 0 0.0 3.2 0.00 0.03 0.00 52 1007.8
20260506085051 9 0 0.0 3.2 0.00 0.03 0.00 53 1007.8
20260506084618 9 0 0.0 3.2 0.00 0.03 0.00 53 1007.9
20260506084052 9 0 0.0 3.2 0.00 0.03 0.00 53 1007.9
20260506083552 9 0 0.0 3.2 0.00 0.03 0.00 53 1008.1
20260506083053 9 0 0.0 3.2 0.00 0.03 0.00 53 1008.1
20260506082555 9 0 0.0 3.2 0.00 0.03 0.00 52 1008.1
20260506082051 9 0 0.0 1.6 0.00 0.03 0.00 53 1008.1
20260506081557 9 0 0.0 4.8 0.00 0.03 0.00 52 1008.0
20260506081052 9 0 0.0 4.8 0.00 0.03 0.00 52 1007.9
20260506080554 9 0 0.0 1.6 0.00 0.03 0.00 52 1007.8
20260506073054 9 0 0.0 4.8 0.00 0.03 0.00 52 1008.0
20260506072554 9 293 0.0 4.8 0.00 0.03 0.00 52 1008.1
20260506072052 10 0 0.0 6.4 0.00 0.03 0.00 52 1008.1
20260506071554 10 0 0.0 6.4 0.00 0.03 0.00 52 1008.2
20260506071051 10 0 0.0 6.4 0.00 0.03 0.00 52 1008.2
20260506070552 10 293 0.0 4.8 0.00 0.03 0.00 52 1008.0
20260506062053 10 0 0.0 6.4 0.00 0.03 0.00 51 1007.7
20260506061555 10 0 0.0 6.4 0.00 0.03 0.00 51 1007.8
20260506061052 10 0 3.2 8.0 0.00 0.03 0.00 51 1008.0
20260506060550 10 293 0.0 8.0 0.00 0.03 0.00 51 1007.8